Regional Weather Roundup
Issued by NWS Spokane, WA

Current Version | Previous Version | Text Only | Print | Product List | Glossary On
Versions: 1 2 3 4 5 6 7 8 9 10 11 12 13 14 15 16 17 18 19 20 21 22 23 24 25 26 27 28 29 30 31 32 33 34 35 36 37 38 39 40 41 42 43 44 45 46 47 48 49 50
000
NZUS01 KOTX 251810
RWROTX
EASTERN WASHINGTON/NORTHERN IDAHO ROUNDUP
NATIONAL WEATHER SERVICE, SPOKANE WA
1100 AM PDT MON MAY 25 2015

Note: "fair" indicated few or no clouds below 12,000 feet with no
significant weather and/or obstructions to visibility.

...NORTHEAST WASHINGTON AND NORTHERN IDAHO PANHANDLE...

CITY           SKY/WX    TMP DP  RH WIND       PRES   REMARKS
SPOKANE INTL   CLOUDY    57  49  74 S7        29.91R
SPOKANE DOWNTO CLOUDY    61  49  64 SW8       29.91R
COEUR D ALENE  CLOUDY    59  52  77 N10       29.90S
DEER PARK      CLOUDY    58  52  80 E5        29.91S
SANDPOINT      CLOUDY    55  52  88 CALM      29.92R
BONNERS FERRY  FAIR      57  48  72 SE3       29.91F

...SOUTHEAST WASHINGTON AND SOUTHERN IDAHO PANHANDLE...

CITY           SKY/WX    TMP DP  RH WIND       PRES   REMARKS
WALLA WALLA    CLOUDY    64  45  49 SW12      29.92S
PULLMAN/MOSCOW CLOUDY    59  47  64 W7        29.93S
LEWISTON       LGT RAIN  62  51  67 E3        29.90S
LOWELL           N/A     69  50  50 CALM      29.84F

...COLUMBIA BASIN...

CITY           SKY/WX    TMP DP  RH WIND       PRES   REMARKS
EPHRATA        SUNNY     73  42  32 NW7       29.86F
MOSES LAKE     SUNNY     71  48  43 SW5       29.87F
TRI CITIES     MOSUNNY   70  44  39 VRB6      29.90S
HERMISTON      MOSUNNY   67  47  48 W6        29.91F
PENDLETON      CLOUDY    63  45  51 W8        29.92F

...EAST SLOPES CASCADES...

CITY           SKY/WX    TMP DP  RH WIND       PRES   REMARKS
THE DALLES     SUNNY     68  46  45 NW18G25   29.92S
YAKIMA         SUNNY     72  39  30 VRB3      29.89F
ELLENSBURG     SUNNY     71  41  33 W8        29.90S
WENATCHEE      MOSUNNY   70  37  29 VRB3      29.88S
OMAK           CLOUDY    66  44  45 N13       29.89S

...SOUTHERN BRITISH COLUMBIA...

CITY           SKY/WX    TMP DP  RH WIND       PRES   REMARKS
PENTICTON      MOSUNNY   66  48  52 N8        29.90F
CASTLEGAR      PTSUNNY   61  52  72 N6        29.90S
CRANBROOK      LGT RAIN  59  45  58 S16       29.90R

...WESTERN MONTANA...

CITY           SKY/WX    TMP DP  RH WIND       PRES   REMARKS
MISSOULA       PTSUNNY   65  40  39 CALM      29.89F

...NEIGHBORING CITIES...

CITY           SKY/WX    TMP DP  RH WIND       PRES   REMARKS
SEATTLE        CLOUDY    56  47  71 SW10      30.03S
CALGARY        CLOUDY    68  37  32 SE15      29.89F



USA.gov is the U.S. government's official web portal to all federal, state and local government web resources and services.